Retour au catalogue

FENGYUN 1C DEB

ActifLEO
NORAD 31487·DEBRIS·🇨🇳 China

Lancé May 10, 1999 depuis Taiyuan Satellite Launch Center

Loading…

Prochains Passages (prochaines 24 heures)

TLE

FraisSource: Space-Track

Époque: Sep 14, 2026, 14:10 UTC

1 31487U 99025BWB 26257.59089213  .00001124  00000-0  78252-3 0  9992
2 31487 102.4030 167.1714 0119638   0.0657 120.2411 13.98716307982676

Suivez FENGYUN 1C DEB en temps réel avec AllMySat

Download on the App Store